Location: Peterborough
(44.3091°N, 78.3197°W)
Time: 15:41:48
(UTC-04:00)

Explorer 7 - Pass Details

Date: 27 March 2023
Orbit: 477 x 653 km, 50.3° (Epoch: 04 June)

Event Time Altitude Azimuth Distance (km) Brightness Sun altitude
Rises 23:08:08 0° 295° (WNW) 2,726 11.2 -34.6°
Reaches altitude 10° 23:10:30 10° 289° (WNW) 1,796 10.0 -34.8°
Enters shadow 23:10:40 11° 288° (WNW) 1,733 9.9 -34.9°
Maximum altitude 23:14:21 42° 218° (SW) 743 - -35.3°
Drops below altitude 10° 23:18:00 10° 146° (SE) 1,697 - -35.7°
Sets 23:20:11 0° 139° (SE) 2,555 - -35.9°
